SCP
0 0 0 0 0 0 0 0 0 0 0 0 0 0 0 0 0 0 0 0 0 0 0 0 0 1 1 2 3 3 2 2 2 1 1 1 1 0 0 0 0 0 0 0
0 0 0 0 0 0 0 0 0 0 0 0 0 0 0 0 0 0 0 0 0 0 0 0 0 0 1 2 3 3 2 2 2 2 1 1 1 0 0 0 0 0 0 0
0 0 0 0 0 0 0 0 0 0 0 0 0 0 0 0 0 0 0 0 0 0 0 0 0 0 1 1 2 3 3 3 2 2 2 1 1 0 0 0 0 0 0 0
0 0 0 0 0 0 0 0 0 0 0 0 0 0 0 0 0 0 0 0 0 0 0 0 0 0 0 1 2 3 3 3 3 3 2 1 1 0 0 0 0 0 0 0
0 0 0 0 0 0 0 0 0 0 0 0 0 0 0 0 0 0 0 0 0 0 0 0 0 0 0 0 1 3 4 4 3 3 3 2 1 0 0 0 0 0 0 0
0 0 0 0 0 0 0 0 0 0 0 0 0 0 0 0 0 0 0 0 0 0 0 0 0 0 0 0 1 3 4 4 4 4 3 2 1 1 1 0 0 0 0 0
0 0 0 0 0 0 0 0 0 0 0 0 0 0 0 0 0 0 0 0 0 0 0 0 0 0 0 0 1 3 4 4 4 4 3 3 2 1 1 0 0 0 0 0
0 0 0 0 0 0 0 0 0 0 0 0 0 0 0 0 0 0 0 0 0 0 0 0 0 0 0 0 1 2 4 4 4 4 3 3 2 1 1 1 0 0 0 0
0 0 0 0 0 0 0 0 0 0 0 0 0 0 0 0 0 0 0 0 0 0 0 0 0 0 0 0 0 2 3 4 4 3 3 2 2 1 1 1 0 0 0 0
0 0 0 0 0 0 0 0 0 0 0 0 0 0 0 0 0 0 0 0 0 0 0 0 0 0 0 0 0 1 3 4 3 3 2 2 1 1 1 1 0 0 0 0
0 0 0 0 0 0 0 0 0 0 0 0 0 0 0 0 0 0 0 0 0 0 0 0 0 0 0 0 0 1 3 3 3 2 2 2 1 1 1 1 0 0 0 0
0 0 0 0 0 0 0 0 0 0 0 0 0 0 0 0 0 0 0 0 0 0 0 0 0 0 0 0 0 1 3 3 3 2 2 2 1 1 0 0 0 0 0 0
0 0 0 0 0 0 0 0 0 0 0 0 0 0 0 0 0 0 0 0 0 0 0 0 0 0 0 0 0 1 2 3 3 3 2 2 1 0 0 0 0 0 0 0
0 0 0 0 0 0 0 0 0 0 0 0 0 0 0 0 0 0 0 0 0 0 0 0 0 0 0 0 0 1 2 3 3 3 2 2 1 0 0 0 0 0 0 0
0 0 0 0 0 0 0 0 0 0 0 0 0 0 0 0 0 0 0 0 0 0 0 0 0 0 0 0 0 0 1 3 4 4 2 1 0 0 0 0 0 0 0 0
0 0 0 0 0 0 0 0 0 0 0 0 0 0 0 0 0 0 0 0 0 0 0 0 0 0 0 0 0 0 1 2 3 3 2 1 0 0 0 0 0 0 0 0
0 0 0 0 0 0 0 0 0 0 0 0 0 0 0 0 0 0 0 0 0 0 0 0 0 0 0 0 0 0 0 1 3 3 2 1 0 0 0 0 0 0 0 0
0 0 0 0 0 0 0 0 0 0 0 0 0 0 0 0 0 0 0 0 0 0 0 0 0 0 0 0 0 0 0 1 2 2 1 0 0 0 0 0 0 0 0 0
0 0 0 0 0 0 0 0 0 0 0 0 0 0 0 0 0 0 0 0 0 0 0 0 0 0 0 0 0 0 0 1 1 1 1 0 0 0 0 0 0 0 0 0
0 0 0 0 0 0 0 0 0 0 0 0 0 0 0 0 0 0 0 0 0 0 0 0 0 0 0 0 0 0 0 1 1 0 0 0 0 0 0 0 0 0 0 0
0 0 0 0 0 0 0 0 0 0 0 0 0 0 0 0 0 0 0 0 0 0 0 0 0 0 0 0 0 0 0 0 0 0 0 0 0 0 0 0 0 0 0 0
0 0 0 0 0 0 0 0 0 0 0 0 0 0 0 0 0 0 0 0 0 0 0 0 0 0 0 0 0 0 0 0 0 0 0 0 0 0 0 0 0 0 0 0
0 0 0 0 0 0 0 0 0 0 0 0 0 0 0 0 0 0 0 0 0 0 0 0 0 0 0 0 0 0 0 0 0 0 0 0 0 0 0 0 0 0 0 0
0 0 0 0 0 0 0 0 0 0 0 0 0 0 0 0 0 0 0 0 0 0 0 0 0 0 0 0 0 0 0 0 0 0 0 0 0 0 0 0 0 0 0 0
0 0 0 0 0 0 0 0 0 0 0 0 0 0 0 0 0 0 0 0 0 0 0 0 0 0 0 0 0 0 0 0 0 0 0 0 0 0 0 0 0 0 0 0
0 0 0 0 0 0 0 0 0 0 0 0 0 0 0 0 0 0 0 0 0 0 0 0 0 0 0 0 0 0 0 0 0 0 0 0 0 0 0 0 0 0 0 0
Wind_Speed
1 2 4 7 7 5 3 4 6 5 2 2 5 8 8 3 1 1 2 2 2 3 2 1 0 1 2 2 3 4 4 4 5 4 4 4 3 2 2 2 3 4 4 4
2 4 7 4 3 4 4 6 6 4 1 2 4 8 7 3 2 2 3 3 3 2 2 2 0 1 2 3 4 4 5 5 5 4 4 3 3 2 2 2 2 3 4 4
4 4 3 3 3 4 6 6 7 6 3 1 2 6 5 2 0 1 1 1 1 1 2 2 1 2 2 3 4 4 5 5 5 5 4 4 3 2 1 2 2 2 4 4
4 4 2 2 4 4 8 5 6 5 3 3 2 5 5 3 2 2 2 3 3 3 2 2 2 2 3 4 3 3 4 5 5 6 6 7 5 4 4 3 3 3 3 4
4 2 2 4 4 4 5 3 4 5 5 4 3 4 6 1 3 4 4 4 3 3 3 3 2 3 2 2 2 3 3 4 4 5 6 7 5 3 3 3 4 3 3 3
4 2 2 3 3 3 2 1 1 0 1 5 7 6 5 2 3 5 5 5 4 4 3 3 3 2 1 0 1 2 3 4 4 5 6 6 6 5 5 5 5 4 3 3
5 3 1 1 2 1 1 2 2 2 2 6 3 4 5 3 2 3 5 5 4 3 3 4 4 3 2 1 1 1 2 3 4 5 6 6 6 7 7 7 6 5 4 3
3 5 2 1 1 2 2 3 3 4 4 4 1 5 3 1 2 3 3 4 5 5 4 4 4 4 2 2 1 1 2 2 3 5 5 5 5 4 4 5 5 5 5 5
2 5 3 3 3 3 2 2 2 2 2 3 4 3 3 2 5 6 6 7 7 7 6 6 6 5 4 3 2 2 2 2 2 3 3 4 4 4 4 4 4 3 3 4
2 5 5 4 2 1 1 2 2 2 3 5 4 3 3 5 6 7 7 8 8 7 7 6 5 5 5 4 3 2 1 2 2 2 2 2 3 4 4 3 4 4 4 4
0 2 5 3 0 1 1 1 1 1 2 3 3 4 1 2 4 6 6 7 7 7 8 7 6 5 5 5 4 3 2 2 1 1 1 2 2 2 3 3 4 4 4 4
0 1 3 4 2 1 1 1 3 3 3 2 2 5 2 4 4 5 6 7 7 7 7 7 6 6 6 6 5 4 3 3 2 1 1 1 2 2 2 3 3 3 4 4
1 1 3 4 2 3 2 2 1 1 1 2 3 5 2 5 6 6 7 7 7 8 8 7 7 6 6 6 6 5 4 4 3 2 1 1 1 2 2 3 3 3 3 3
1 1 3 5 4 1 2 3 2 1 2 4 6 6 5 7 8 8 8 7 7 7 8 8 7 7 6 6 5 5 5 4 3 2 1 1 1 2 2 2 2 2 3 3
2 1 3 4 4 2 3 4 3 3 4 5 5 5 5 6 6 6 6 7 7 8 9 9 8 7 7 7 6 6 5 4 4 3 2 2 1 1 1 1 2 2 2 2
1 1 1 3 2 2 4 5 5 4 4 4 4 4 4 6 5 6 7 7 8 9 9 9 9 8 8 7 7 6 5 4 3 3 3 3 2 1 1 1 1 1 1 1
0 1 1 4 3 3 4 3 2 1 1 0 2 4 7 7 8 7 7 7 7 8 9 9 9 8 7 7 6 6 5 4 3 3 3 3 2 2 1 1 1 1 1 1
2 2 1 2 3 3 3 1 1 1 1 1 2 5 6 7 8 5 3 5 7 9 9 8 8 8 7 7 6 6 5 3 3 3 3 3 3 3 2 1 1 1 1 2
1 3 2 1 1 5 2 1 1 1 2 1 3 6 7 8 5 2 4 6 7 7 7 7 7 7 7 7 7 6 5 4 4 3 3 3 3 3 3 2 2 2 1 1
3 2 2 1 2 5 3 2 3 1 3 2 3 5 6 7 4 4 7 8 8 7 7 7 7 6 6 7 6 5 5 5 5 5 4 4 3 3 3 3 2 2 1 2
2 2 1 2 3 6 3 3 1 1 4 4 3 4 3 3 4 7 8 8 7 7 7 7 6 6 6 6 6 5 5 5 6 5 5 4 3 3 3 2 2 1 1 1
3 2 2 2 3 6 1 2 2 3 3 3 3 3 4 6 7 7 7 8 8 8 8 7 6 7 6 6 5 6 7 7 6 5 5 5 4 3 3 2 2 1 1 1
3 4 3 5 5 1 1 1 1 1 3 3 4 4 5 6 7 7 7 7 7 7 7 6 6 7 7 6 5 6 7 6 6 5 5 5 4 3 3 2 2 1 1 2
2 1 1 3 4 2 2 2 2 2 3 4 4 4 4 6 7 7 7 7 6 6 6 6 6 7 7 7 6 6 7 6 5 5 5 4 4 4 3 2 2 2 2 2
2 2 1 4 4 4 2 2 3 3 3 4 5 4 5 6 7 7 6 7 6 7 6 6 6 7 8 7 7 7 6 5 5 5 5 4 4 3 3 3 3 3 3 4
3 4 4 5 3 3 5 3 3 3 4 4 5 5 5 5 6 6 6 6 6 7 7 7 7 7 7 7 7 7 6 5 5 5 5 4 3 3 3 3 4 5 5 7
Wind_Direction
29 108 217 220 215 235 235 242 259 262 229 208 238 260 273 282 268 276 284 267 248 252 272 297 164 157 156 159 163 169 167 166 159 164 162 159 162 157 149 145 145 146 142 139
39 237 242 241 233 239 245 252 260 283 296 230 257 269 271 246 213 226 248 271 265 297 340 343 2 162 184 193 189 180 180 177 179 182 170 160 146 155 155 146 145 152 149 150
215 253 265 228 234 235 246 237 245 261 312 263 278 285 264 256 208 357 353 335 315 267 277 293 267 215 202 208 205 200 192 185 184 172 149 126 111 104 130 161 170 169 161 155
247 275 292 261 249 233 255 240 240 245 243 253 190 270 268 249 288 310 331 341 330 326 316 304 296 263 228 227 214 207 193 186 182 171 167 166 171 176 186 182 177 168 165 157
263 283 280 255 250 224 245 260 246 241 222 246 227 231 273 346 304 308 316 317 313 316 318 308 292 264 245 225 207 208 192 187 185 182 180 179 184 180 161 159 167 171 175 167
262 274 233 246 276 240 264 335 301 176 164 242 221 210 268 278 287 316 322 321 320 322 321 320 320 325 310 278 193 192 189 196 192 188 187 187 185 175 168 170 179 181 180 180
306 291 302 4 357 350 36 81 354 324 259 248 206 211 246 278 334 331 322 321 324 330 339 343 345 336 317 308 234 204 194 206 199 192 196 195 190 185 187 184 187 184 183 192
302 291 292 328 232 226 227 184 195 232 240 276 261 229 236 290 356 356 347 349 359 359 356 354 349 340 321 306 278 226 217 220 206 200 201 195 191 192 195 193 189 191 194 195
265 274 311 310 293 179 179 211 216 188 263 267 258 281 291 3 4 6 7 11 6 1 1 359 355 351 344 334 310 254 229 228 213 207 199 191 189 193 198 193 191 191 191 186
219 276 299 318 358 10 180 155 110 174 235 261 279 269 281 329 339 349 360 1 355 354 355 354 352 351 350 346 343 342 294 246 229 202 199 202 194 194 191 183 190 192 191 185
216 244 305 339 286 252 90 113 151 191 206 213 269 274 322 326 348 351 355 359 354 353 351 349 350 351 352 357 356 358 356 346 308 228 202 202 199 188 185 190 198 197 192 187
230 149 284 278 287 3 135 176 166 195 247 213 223 265 22 22 11 5 356 355 354 354 351 353 355 359 1 358 355 357 353 350 336 310 221 202 190 175 190 202 204 197 196 193
122 101 333 336 349 18 23 2 348 175 163 199 209 257 15 14 8 2 356 351 351 352 354 357 360 1 358 355 353 353 350 344 339 341 318 224 200 197 207 212 210 199 196 195
79 149 192 230 261 308 307 320 335 138 200 238 239 270 324 348 346 347 349 346 347 350 352 353 353 352 350 349 351 348 344 344 346 349 350 315 250 229 220 207 205 206 197 193
85 222 241 257 278 273 287 296 295 240 232 234 264 274 315 328 325 331 337 341 349 351 352 350 348 347 346 348 349 348 343 344 346 349 349 341 318 287 229 204 201 201 199 203
63 189 298 279 287 290 296 305 290 276 272 264 290 292 326 326 335 338 338 341 344 342 342 343 343 343 343 341 340 341 337 335 339 339 337 343 353 342 306 239 211 201 200 201
55 143 304 283 320 345 298 297 282 273 342 213 260 300 330 331 330 325 323 333 334 333 335 336 337 334 333 330 327 325 324 327 336 335 336 344 346 344 324 294 239 225 215 198
171 152 181 295 12 258 248 39 59 136 59 23 335 330 327 319 311 302 315 337 335 334 333 333 332 332 331 329 328 324 323 327 331 331 333 340 341 333 333 317 268 249 234 219
184 158 154 167 253 274 291 10 22 258 281 21 335 329 337 335 325 322 5 353 332 326 327 327 327 326 329 331 331 331 329 333 332 329 327 328 328 323 318 305 286 260 246 254
46 86 128 152 218 251 274 318 309 136 279 347 345 333 342 352 346 312 338 337 330 331 331 330 331 332 332 330 333 337 334 336 328 320 316 313 311 303 296 288 283 275 249 248
32 42 139 194 231 264 284 306 5 138 279 324 323 323 329 308 271 296 318 323 325 326 327 329 329 330 328 328 334 333 331 325 318 318 313 310 305 294 285 286 289 283 270 258
183 176 199 172 215 260 2 79 147 250 314 323 318 318 308 298 303 310 316 321 327 329 330 332 330 327 327 332 336 330 325 321 321 320 316 308 304 297 299 286 284 271 255 246
202 198 197 198 217 257 134 190 269 322 305 308 310 312 311 307 308 314 316 318 322 324 325 327 325 323 327 332 332 320 316 320 321 321 316 311 308 299 292 275 270 262 240 242
279 318 195 264 271 270 271 305 335 323 303 306 307 307 308 303 306 309 312 318 321 321 321 323 324 324 325 328 326 312 311 317 316 312 310 309 310 306 297 283 267 255 248 248
240 174 226 264 285 314 295 287 314 324 327 329 326 317 310 307 306 307 308 312 313 316 319 320 318 317 316 319 318 318 317 314 312 309 307 308 307 304 305 298 282 270 247 240
197 186 194 237 244 238 271 294 316 318 318 319 322 320 318 309 302 306 305 306 309 311 315 314 313 312 312 314 314 315 312 309 307 310 312 309 305 304 306 308 311 302 288 282